Location: Dalton
(34.7700°N, 84.9700°W)
Time: 11:42:58
(UTC-05:00)

Envisat - Pass Details

Date: 12 October 2017
Orbit: 764 x 766 km, 98.2° (Epoch: 13 December)

Event Time Altitude Azimuth Distance (km) Brightness Sun altitude
Exits shadow 21:34:00 29° 351° (N) 1,368 4.4 -30.5°
Drops below altitude 10° 21:36:28 10° 349° (N) 2,309 5.7 -31.0°
Sets 21:38:47 0° 349° (N) 3,239 6.5 -31.5°
